When you browse on this site, cookies collect data to enhance your experience and personalize the content and advertising you see.
Visit our Privacy Policy to learn more. By continuing to use the site, you agree to this use of cookies and data.

Météo par heure à Halytsya

Ce jour, 20 Septembre, Dimanche

Heure Température Précipitation Vent Pression Humidité
00:00 +12°C° 0 mm 1 m/s 751 mmHg 66%
01:00 +12°C° 0 mm 1 m/s 751 mmHg 69%
02:00 +11°C° 0 mm 1 m/s 751 mmHg 70%
03:00 +11°C° 0 mm 1 m/s 751 mmHg 72%
04:00 +10°C° 0 mm 1 m/s 751 mmHg 75%
05:00 +10°C° 0 mm 1 m/s 751 mmHg 77%
06:00 +11°C° 0 mm 1 m/s 751 mmHg 70%
07:00 +13°C° 0 mm 1 m/s 751 mmHg 63%
08:00 +14°C° 0 mm 2 m/s 751 mmHg 56%
09:00 +16°C° 0 mm 2 m/s 751 mmHg 49%
10:00 +18°C° 0 mm 2 m/s 751 mmHg 42%
11:00 +20°C° 0 mm 2 m/s 751 mmHg 35%
12:00 +21°C° 0 mm 2 m/s 751 mmHg 32%
13:00 +23°C° 0 mm 2 m/s 751 mmHg 29%
14:00 +23°C° 0 mm 2 m/s 750 mmHg 27%
15:00 +23°C° 0 mm 2 m/s 750 mmHg 30%
16:00 +23°C° 0 mm 2 m/s 750 mmHg 34%
17:00 +22°C° 0 mm 1 m/s 750 mmHg 37%
18:00 +19°C° 0 mm 2 m/s 750 mmHg 43%
19:00 +17°C° 0 mm 2 m/s 750 mmHg 49%
20:00 +16°C° 0 mm 2 m/s 750 mmHg 55%
21:00 +15°C° 0 mm 2 m/s 750 mmHg 57%
22:00 +14°C° 0 mm 2 m/s 750 mmHg 59%
23:00 +14°C° 0 mm 2 m/s 751 mmHg 61%

Demain, 21 Septembre, Lundi

Heure Température Précipitation Vent Pression Humidité
00:00 +12°C° 0 mm 3 m/s 751 mmHg 61%
01:00 +12°C° 0 mm 3 m/s 751 mmHg 61%
02:00 +12°C° 0 mm 3 m/s 751 mmHg 61%
03:00 +11°C° 0 mm 3 m/s 751 mmHg 60%
04:00 +11°C° 0 mm 3 m/s 750 mmHg 60%
05:00 +11°C° 0 mm 3 m/s 750 mmHg 59%
06:00 +12°C° 0 mm 3 m/s 750 mmHg 56%
07:00 +13°C° 0 mm 3 m/s 750 mmHg 52%
08:00 +16°C° 0 mm 3 m/s 751 mmHg 49%
09:00 +18°C° 0 mm 3 m/s 751 mmHg 44%
10:00 +20°C° 0 mm 4 m/s 751 mmHg 39%
11:00 +22°C° 0 mm 4 m/s 751 mmHg 33%
12:00 +23°C° 0 mm 4 m/s 750 mmHg 32%
13:00 +25°C° 0 mm 4 m/s 750 mmHg 30%
14:00 +26°C° 0 mm 4 m/s 750 mmHg 29%
15:00 +26°C° 0 mm 3 m/s 750 mmHg 30%
16:00 +25°C° 0 mm 3 m/s 749 mmHg 32%
17:00 +25°C° 0 mm 2 m/s 749 mmHg 34%
18:00 +23°C° 0 mm 2 m/s 749 mmHg 36%
19:00 +19°C° 0 mm 2 m/s 749 mmHg 39%
20:00 +17°C° 0 mm 2 m/s 750 mmHg 42%
21:00 +17°C° 0 mm 3 m/s 750 mmHg 43%
22:00 +16°C° 0 mm 3 m/s 750 mmHg 44%
23:00 +14°C° 0 mm 3 m/s 750 mmHg 45%

Après-demain, 22 Septembre, Mardi

Heure Température Précipitation Vent Pression Humidité
00:00 +14°C° 0 mm 3 m/s 750 mmHg 46%
01:00 +13°C° 0 mm 3 m/s 750 mmHg 47%
02:00 +13°C° 0 mm 3 m/s 749 mmHg 49%
03:00 +12°C° 0 mm 3 m/s 749 mmHg 56%
04:00 +12°C° 0 mm 3 m/s 749 mmHg 63%
05:00 +11°C° 0 mm 3 m/s 749 mmHg 70%
06:00 +13°C° 0 mm 3 m/s 749 mmHg 66%
07:00 +16°C° 0 mm 3 m/s 750 mmHg 62%
08:00 +17°C° 0 mm 4 m/s 750 mmHg 57%
09:00 +19°C° 0 mm 5 m/s 750 mmHg 48%
10:00 +22°C° 0 mm 5 m/s 750 mmHg 38%
11:00 +24°C° 0 mm 6 m/s 750 mmHg 29%
12:00 +26°C° 0 mm 6 m/s 749 mmHg 27%
13:00 +26°C° 0 mm 5 m/s 749 mmHg 25%
14:00 +27°C° 0 mm 5 m/s 749 mmHg 23%
15:00 +26°C° 0 mm 5 m/s 748 mmHg 25%
16:00 +26°C° 0 mm 4 m/s 748 mmHg 26%
17:00 +25°C° 0 mm 3 m/s 747 mmHg 28%
18:00 +22°C° 0 mm 3 m/s 747 mmHg 30%
19:00 +20°C° 0 mm 3 m/s 747 mmHg 32%
20:00 +18°C° 0 mm 3 m/s 747 mmHg 34%
21:00 +17°C° 0 mm 3 m/s 747 mmHg 35%
22:00 +16°C° 0 mm 3 m/s 747 mmHg 36%
23:00 +15°C° 0 mm 4 m/s 747 mmHg 37%

23 Septembre, Mercredi

Heure Température Précipitation Vent Pression Humidité
00:00 +14°C° 0 mm 4 m/s 747 mmHg 43%
01:00 +14°C° 0 mm 4 m/s 747 mmHg 48%
02:00 +13°C° 0 mm 4 m/s 747 mmHg 54%
03:00 +13°C° 0 mm 3 m/s 747 mmHg 54%
04:00 +12°C° 0 mm 3 m/s 746 mmHg 55%
05:00 +11°C° 0 mm 3 m/s 746 mmHg 55%
06:00 +12°C° 0 mm 4 m/s 746 mmHg 54%
07:00 +13°C° 0 mm 4 m/s 746 mmHg 52%
08:00 +14°C° 0 mm 4 m/s 746 mmHg 51%
09:00 +17°C° 0 mm 5 m/s 746 mmHg 45%
10:00 +20°C° 0 mm 5 m/s 746 mmHg 40%
11:00 +22°C° 0 mm 6 m/s 745 mmHg 34%
12:00 +23°C° 0 mm 6 m/s 745 mmHg 31%
13:00 +24°C° 0 mm 6 m/s 745 mmHg 29%
14:00 +26°C° 0 mm 5 m/s 744 mmHg 27%
15:00 +25°C° 0 mm 5 m/s 744 mmHg 28%
16:00 +25°C° 0 mm 4 m/s 744 mmHg 30%
17:00 +24°C° 0 mm 3 m/s 743 mmHg 31%
18:00 +22°C° 0 mm 3 m/s 743 mmHg 33%
19:00 +20°C° 0 mm 2 m/s 743 mmHg 36%
20:00 +18°C° 0 mm 2 m/s 743 mmHg 38%
21:00 +17°C° 0 mm 2 m/s 743 mmHg 40%
22:00 +17°C° 0 mm 2 m/s 743 mmHg 42%
23:00 +16°C° 0 mm 2 m/s 743 mmHg 44%

24 Septembre, Jeudi

Heure Température Précipitation Vent Pression Humidité
00:00 +15°C° 0 mm 2 m/s 743 mmHg 47%
01:00 +15°C° 0 mm 2 m/s 743 mmHg 50%
02:00 +14°C° 0 mm 2 m/s 743 mmHg 53%
03:00 +14°C° 0 mm 2 m/s 743 mmHg 58%
04:00 +14°C° 0 mm 2 m/s 743 mmHg 63%
05:00 +14°C° 0 mm 2 m/s 743 mmHg 68%
06:00 +15°C° 0 mm 2 m/s 743 mmHg 67%
07:00 +16°C° 0 mm 3 m/s 744 mmHg 66%
08:00 +17°C° 0 mm 3 m/s 744 mmHg 65%
09:00 +19°C° 0 mm 3 m/s 744 mmHg 57%
10:00 +22°C° 0 mm 4 m/s 744 mmHg 49%
11:00 +25°C° 0 mm 4 m/s 744 mmHg 41%
12:00 +27°C° 0 mm 3 m/s 744 mmHg 38%
13:00 +28°C° 0 mm 3 m/s 743 mmHg 35%
14:00 +29°C° 0 mm 3 m/s 743 mmHg 32%
15:00 +28°C° 0 mm 2 m/s 743 mmHg 33%
16:00 +28°C° 0 mm 2 m/s 743 mmHg 35%
17:00 +27°C° 0 mm 1 m/s 743 mmHg 37%
18:00 +25°C° 0 mm 1 m/s 743 mmHg 41%
19:00 +23°C° 0 mm 1 m/s 743 mmHg 45%
20:00 +21°C° 0 mm 1 m/s 743 mmHg 48%
21:00 +21°C° 0 mm 1 m/s 743 mmHg 50%
22:00 +19°C° 0 mm 2 m/s 744 mmHg 51%
23:00 +19°C° 0 mm 2 m/s 744 mmHg 53%

25 Septembre, Vendredi

Heure Température Précipitation Vent Pression Humidité
00:00 +18°C° 0 mm 2 m/s 743 mmHg 54%
01:00 +18°C° 0 mm 2 m/s 743 mmHg 55%
02:00 +17°C° 0 mm 2 m/s 743 mmHg 56%
03:00 +17°C° 0 mm 2 m/s 743 mmHg 57%
04:00 +17°C° 0 mm 2 m/s 743 mmHg 58%
05:00 +16°C° 0 mm 2 m/s 743 mmHg 59%
06:00 +17°C° 0 mm 2 m/s 743 mmHg 57%
07:00 +19°C° 0 mm 3 m/s 743 mmHg 54%
08:00 +20°C° 0 mm 3 m/s 742 mmHg 51%
09:00 +22°C° 0 mm 4 m/s 742 mmHg 47%
10:00 +26°C° 0 mm 5 m/s 742 mmHg 42%
11:00 +28°C° 0 mm 6 m/s 741 mmHg 38%
12:00 +29°C° 0 mm 6 m/s 741 mmHg 36%
13:00 +29°C° 0 mm 6 m/s 740 mmHg 34%
14:00 +30°C° 0 mm 6 m/s 740 mmHg 32%
15:00 +30°C° 0 mm 5 m/s 739 mmHg 33%
16:00 +29°C° 0 mm 5 m/s 738 mmHg 34%
17:00 +29°C° 0 mm 4 m/s 738 mmHg 35%
18:00 +27°C° 0 mm 5 m/s 738 mmHg 37%
19:00 +26°C° 0 mm 5 m/s 737 mmHg 40%
20:00 +23°C° 0 mm 5 m/s 737 mmHg 42%
21:00 +23°C° 0.1 mm 6 m/s 737 mmHg 44%
22:00 +22°C° 0.1 mm 6 m/s 737 mmHg 46%
23:00 +22°C° 0.1 mm 7 m/s 736 mmHg 48%
Voir plus